VLG96YF EDDM-LEBL

Flight info

Callsign VLG96YF
Flight time 1h 23m
Altitude 35000
Route TURBU7N TURBU Y107 TOBSO DCT BAKOR DCT GEKBA DCT VAMTU DCT KOLON DCT GANGU DCT PADKO DCT DIVKO DCT NILDU N975 BISBA
Aircraft A321/M-SDFGHILORVWXY/LB1

Departure

Time 2026-05-05 21:10
Airport Munich Airport (EDDM)

Arrival

Time 2026-05-05 22:34
Airport Josep Tarradellas Barcelona-El Prat Airport (LEBL)
Time Latitude Longitude Altitude Speed Heading
2026-05-05 20:53 48.35235 11.78339 1476 ft 0 kts 83°
2026-05-05 20:59 48.35234 11.78333 1476 ft 2 kts 83°
2026-05-05 21:00 48.35233 11.78311 1475 ft 2 kts 83°
2026-05-05 21:00 48.35232 11.78289 1475 ft 2 kts 100°
2026-05-05 21:00 48.35236 11.78267 1474 ft 2 kts 112°
2026-05-05 21:00 48.35243 11.78247 1473 ft 2 kts 127°
2026-05-05 21:01 48.35253 11.78230 1472 ft 2 kts 141°
2026-05-05 21:01 48.35266 11.78217 1472 ft 2 kts 155°
2026-05-05 21:01 48.35279 11.78209 1471 ft 2 kts 168°
2026-05-05 21:01 48.35286 11.78208 1471 ft 1 kts 176°
2026-05-05 21:02 48.35290 11.78207 1471 ft 0 kts 173°
2026-05-05 21:03 48.35269 11.78210 1472 ft 9 kts 174°
2026-05-05 21:03 48.35202 11.78222 1472 ft 9 kts 174°
2026-05-05 21:03 48.35139 11.78233 1472 ft 9 kts 173°
2026-05-05 21:04 48.35071 11.78245 1471 ft 9 kts 173°
2026-05-05 21:04 48.35004 11.78256 1472 ft 9 kts 174°
2026-05-05 21:04 48.34935 11.78268 1470 ft 10 kts 179°
2026-05-05 21:04 48.34886 11.78199 1470 ft 10 kts 255°
2026-05-05 21:05 48.34876 11.78091 1469 ft 10 kts 251°
2026-05-05 21:05 48.34825 11.78038 1470 ft 9 kts 179°
2026-05-05 21:05 48.34761 11.78047 1470 ft 9 kts 173°
2026-05-05 21:05 48.34688 11.78080 1470 ft 14 kts 134°
2026-05-05 21:06 48.34688 11.78220 1470 ft 13 kts 83°
2026-05-05 21:06 48.34699 11.78356 1470 ft 12 kts 84°
2026-05-05 21:06 48.34708 11.78474 1472 ft 10 kts 84°
2026-05-05 21:06 48.34716 11.78576 1473 ft 12 kts 82°
2026-05-05 21:07 48.34730 11.78755 1474 ft 17 kts 84°
2026-05-05 21:07 48.34744 11.78930 1474 ft 16 kts 83°
2026-05-05 21:07 48.34757 11.79100 1473 ft 16 kts 83°
2026-05-05 21:07 48.34770 11.79277 1470 ft 17 kts 83°
2026-05-05 21:08 48.34784 11.79453 1468 ft 17 kts 84°
2026-05-05 21:08 48.34798 11.79634 1467 ft 17 kts 84°
2026-05-05 21:08 48.34811 11.79807 1466 ft 16 kts 83°
2026-05-05 21:08 48.34824 11.79972 1466 ft 15 kts 83°
2026-05-05 21:09 48.34824 11.80125 1467 ft 14 kts 111°
2026-05-05 21:09 48.34760 11.80228 1466 ft 13 kts 158°
2026-05-05 21:09 48.34671 11.80252 1466 ft 13 kts 175°
2026-05-05 21:09 48.34563 11.80270 1467 ft 15 kts 173°
2026-05-05 21:10 48.34454 11.80147 1467 ft 46 kts 262°
2026-05-05 21:10 48.34390 11.79318 1473 ft 112 kts 263°
2026-05-05 21:10 48.34278 11.77857 1487 ft 165 kts 263°
2026-05-05 21:10 48.34166 11.76139 2114 ft 163 kts 264°
2026-05-05 21:11 48.34048 11.74491 2811 ft 163 kts 265°
2026-05-05 21:11 48.33843 11.72849 3478 ft 163 kts 251°
2026-05-05 21:11 48.33107 11.71464 3748 ft 184 kts 220°
2026-05-05 21:11 48.31827 11.70824 4019 ft 208 kts 190°
2026-05-05 21:12 48.30330 11.70778 4324 ft 224 kts 186°
2026-05-05 21:12 48.28745 11.71004 4685 ft 241 kts 167°
2026-05-05 21:12 48.27200 11.72167 5126 ft 258 kts 150°
2026-05-05 21:12 48.25674 11.73743 5498 ft 275 kts 147°
2026-05-05 21:13 48.24075 11.75440 5977 ft 289 kts 147°
2026-05-05 21:13 48.22411 11.77180 6707 ft 292 kts 148°
2026-05-05 21:13 48.20751 11.78888 7497 ft 293 kts 148°
2026-05-05 21:13 48.19080 11.80562 8318 ft 292 kts 152°
2026-05-05 21:14 48.17295 11.81955 9150 ft 290 kts 160°
2026-05-05 21:14 48.15430 11.82993 9979 ft 288 kts 165°
2026-05-05 21:14 48.13520 11.83941 10615 ft 295 kts 165°
2026-05-05 21:14 48.11514 11.84918 10949 ft 312 kts 165°
2026-05-05 21:15 48.09396 11.85957 11426 ft 323 kts 165°
2026-05-05 21:15 48.07265 11.87011 12091 ft 327 kts 165°
2026-05-05 21:15 48.05098 11.88086 12765 ft 330 kts 165°
2026-05-05 21:15 48.02899 11.89177 13417 ft 334 kts 165°
2026-05-05 21:16 48.00697 11.90269 14055 ft 337 kts 165°
2026-05-05 21:16 47.98477 11.91369 14702 ft 339 kts 165°
2026-05-05 21:16 47.96257 11.92466 15330 ft 341 kts 165°
2026-05-05 21:16 47.93991 11.93584 15991 ft 343 kts 166°
2026-05-05 21:17 47.91681 11.94431 16597 ft 343 kts 173°
2026-05-05 21:17 47.89343 11.94803 17186 ft 342 kts 180°
2026-05-05 21:17 47.86938 11.94819 17776 ft 344 kts 183°
2026-05-05 21:17 47.84576 11.94770 18355 ft 346 kts 184°
2026-05-05 21:18 47.82158 11.94712 18941 ft 348 kts 184°
2026-05-05 21:18 47.79749 11.94658 19513 ft 350 kts 184°
2026-05-05 21:18 47.77302 11.94608 20114 ft 351 kts 184°
2026-05-05 21:18 47.74875 11.94561 20670 ft 352 kts 184°
2026-05-05 21:19 47.72420 11.94516 21206 ft 354 kts 184°
2026-05-05 21:19 47.69951 11.94472 21732 ft 356 kts 184°
2026-05-05 21:19 47.67484 11.94429 22248 ft 358 kts 184°
2026-05-05 21:19 47.64995 11.94385 22744 ft 360 kts 183°
2026-05-05 21:20 47.62503 11.94340 23228 ft 362 kts 183°
2026-05-05 21:20 47.59965 11.94295 23701 ft 364 kts 183°
2026-05-05 21:20 47.57435 11.94253 24175 ft 365 kts 183°
2026-05-05 21:20 47.54896 11.94209 24591 ft 368 kts 183°
2026-05-05 21:21 47.52340 11.94166 24998 ft 371 kts 184°
2026-05-05 21:21 47.49736 11.94122 25405 ft 373 kts 184°
2026-05-05 21:21 47.47169 11.94076 25817 ft 375 kts 184°
2026-05-05 21:21 47.44533 11.93998 26220 ft 376 kts 185°
2026-05-05 21:22 47.41880 11.93716 26595 ft 378 kts 189°
2026-05-05 21:22 47.39267 11.93227 26963 ft 379 kts 191°
2026-05-05 21:22 47.36663 11.92709 27338 ft 381 kts 191°
2026-05-05 21:22 47.34034 11.92189 27678 ft 384 kts 191°
2026-05-05 21:23 47.31369 11.91661 28021 ft 386 kts 191°
2026-05-05 21:23 47.28708 11.91131 28354 ft 388 kts 191°
2026-05-05 21:23 47.26039 11.90601 28677 ft 391 kts 191°
2026-05-05 21:23 47.23331 11.90063 28994 ft 393 kts 191°
2026-05-05 21:24 47.20615 11.89525 29293 ft 395 kts 191°
2026-05-05 21:24 47.17903 11.88986 29601 ft 397 kts 191°
2026-05-05 21:24 47.15152 11.88441 29918 ft 398 kts 192°
2026-05-05 21:24 47.12417 11.87902 30221 ft 400 kts 192°
2026-05-05 21:25 47.09660 11.87353 30479 ft 402 kts 192°
2026-05-05 21:25 47.06849 11.86799 30734 ft 404 kts 192°
2026-05-05 21:25 47.04091 11.86256 31034 ft 405 kts 192°
2026-05-05 21:25 47.01309 11.85619 31329 ft 404 kts 195°
2026-05-05 21:26 46.98560 11.84778 31694 ft 402 kts 197°
2026-05-05 21:26 46.95855 11.83921 32086 ft 400 kts 197°
2026-05-05 21:26 46.93165 11.83071 32467 ft 398 kts 198°
2026-05-05 21:26 46.90449 11.82213 32808 ft 397 kts 198°
2026-05-05 21:27 46.87777 11.81363 33114 ft 396 kts 198°
2026-05-05 21:27 46.85087 11.80510 33442 ft 395 kts 198°
2026-05-05 21:27 46.82386 11.79655 33715 ft 396 kts 198°
2026-05-05 21:27 46.79715 11.78808 33968 ft 396 kts 198°
2026-05-05 21:28 46.77026 11.77960 34259 ft 396 kts 199°
2026-05-05 21:28 46.74332 11.77103 34491 ft 396 kts 199°
2026-05-05 21:28 46.71652 11.76251 34698 ft 397 kts 198°
2026-05-05 21:28 46.68952 11.75348 34843 ft 397 kts 201°
2026-05-05 21:29 46.66337 11.74096 34995 ft 394 kts 206°
2026-05-05 21:29 46.63847 11.72491 35010 ft 392 kts 211°
2026-05-05 21:29 46.59303 11.68272 35008 ft 387 kts 221°
2026-05-05 21:30 46.55455 11.62896 35002 ft 384 kts 231°
2026-05-05 21:30 46.52081 11.56906 35002 ft 383 kts 232°
2026-05-05 21:31 46.48738 11.50906 35000 ft 382 kts 233°
2026-05-05 21:31 46.45423 11.44962 34994 ft 383 kts 232°
2026-05-05 21:32 46.42067 11.38940 34989 ft 382 kts 233°
2026-05-05 21:32 46.38746 11.32999 34985 ft 382 kts 232°
2026-05-05 21:33 46.35404 11.27029 34986 ft 380 kts 232°
2026-05-05 21:33 46.32096 11.21132 34992 ft 381 kts 231°
2026-05-05 21:34 46.28756 11.15194 34990 ft 381 kts 231°
2026-05-05 21:34 46.25447 11.09319 34990 ft 379 kts 232°
2026-05-05 21:35 46.22109 11.03408 34993 ft 380 kts 232°
2026-05-05 21:35 46.18771 10.97511 34990 ft 379 kts 232°
2026-05-05 21:36 46.15451 10.91657 34989 ft 379 kts 231°
2026-05-05 21:36 46.12132 10.85812 34988 ft 377 kts 232°
2026-05-05 21:37 46.08830 10.80007 34985 ft 376 kts 231°
2026-05-05 21:37 46.05509 10.74188 34983 ft 376 kts 231°
2026-05-05 21:38 46.02188 10.68379 34984 ft 376 kts 232°
2026-05-05 21:38 45.98895 10.62634 34985 ft 375 kts 231°
2026-05-05 21:39 45.95574 10.56845 34986 ft 374 kts 231°
2026-05-05 21:39 45.92274 10.51110 34988 ft 374 kts 231°
2026-05-05 21:40 45.88969 10.45373 34992 ft 372 kts 231°
2026-05-05 21:40 45.85665 10.39654 34993 ft 373 kts 231°
2026-05-05 21:41 45.82351 10.33935 34997 ft 373 kts 231°
2026-05-05 21:41 45.79056 10.28251 35000 ft 372 kts 231°
2026-05-05 21:42 45.75751 10.22558 35001 ft 371 kts 230°
2026-05-05 21:42 45.72450 10.16892 35001 ft 372 kts 231°
2026-05-05 21:43 45.69141 10.11226 34998 ft 371 kts 231°
2026-05-05 21:43 45.65863 10.05612 34998 ft 371 kts 231°
2026-05-05 21:44 45.62541 9.99945 35000 ft 371 kts 230°
2026-05-05 21:44 45.59248 9.94335 34999 ft 370 kts 230°
2026-05-05 21:45 45.55951 9.88731 34995 ft 370 kts 230°
2026-05-05 21:45 45.52645 9.83118 34993 ft 370 kts 231°
2026-05-05 21:46 45.49318 9.77485 34989 ft 370 kts 230°
2026-05-05 21:46 45.46012 9.71894 34986 ft 370 kts 230°
2026-05-05 21:47 45.42703 9.66315 34990 ft 369 kts 230°
2026-05-05 21:47 45.39388 9.60741 34992 ft 369 kts 230°
2026-05-05 21:48 45.36079 9.55183 34988 ft 369 kts 230°
2026-05-05 21:48 45.32754 9.49606 34990 ft 369 kts 230°
2026-05-05 21:49 45.29444 9.44077 34986 ft 369 kts 230°
2026-05-05 21:49 45.26116 9.38518 34992 ft 369 kts 230°
2026-05-05 21:50 45.22802 9.32993 34982 ft 368 kts 229°
2026-05-05 21:50 45.19484 9.27475 34990 ft 368 kts 229°
2026-05-05 21:51 45.16187 9.22009 34985 ft 368 kts 229°
2026-05-05 21:51 45.12869 9.16509 34975 ft 368 kts 229°
2026-05-05 21:52 45.07867 9.08242 34955 ft 368 kts 229°
2026-05-05 21:53 44.25708 7.76330 34958 ft 367 kts 223°
2026-05-05 21:54 44.15951 7.64202 34960 ft 366 kts 225°
2026-05-05 21:54 44.12443 7.59110 34955 ft 365 kts 229°
2026-05-05 21:55 43.77815 7.04135 34958 ft 365 kts 229°
2026-05-05 21:55 43.74675 6.98552 34963 ft 365 kts 233°
2026-05-05 21:56 43.71957 6.92659 34962 ft 365 kts 238°
2026-05-05 21:56 43.69644 6.86424 34956 ft 367 kts 242°
2026-05-05 21:57 43.46090 6.07755 34927 ft 369 kts 244°
2026-05-05 21:57 43.44067 6.01123 34913 ft 370 kts 244°
2026-05-05 21:58 43.42092 5.94652 34914 ft 370 kts 243°
2026-05-05 21:58 43.39578 5.88577 34898 ft 367 kts 232°
2026-05-05 21:59 43.36544 5.82897 34903 ft 368 kts 233°
2026-05-05 21:59 43.33525 5.77260 34911 ft 368 kts 232°
2026-05-05 22:00 43.30489 5.71608 34882 ft 368 kts 233°
2026-05-05 22:00 43.27461 5.65980 34900 ft 369 kts 233°
2026-05-05 22:01 43.24404 5.60307 34899 ft 370 kts 232°
2026-05-05 22:01 43.21348 5.54642 34906 ft 370 kts 232°
2026-05-05 22:02 43.18299 5.49011 34889 ft 370 kts 233°
2026-05-05 22:02 43.15244 5.43376 34900 ft 370 kts 233°
2026-05-05 22:03 43.12181 5.37737 34898 ft 369 kts 233°
2026-05-05 22:03 43.09101 5.32081 34894 ft 370 kts 232°
2026-05-05 22:04 43.06048 5.26479 34891 ft 370 kts 232°
2026-05-05 22:04 43.02960 5.20823 34895 ft 370 kts 232°
2026-05-05 22:05 42.99892 5.15217 34882 ft 370 kts 232°
2026-05-05 22:05 42.96819 5.09611 34898 ft 371 kts 232°
2026-05-05 22:06 42.93739 5.04000 34890 ft 371 kts 232°
2026-05-05 22:06 42.90648 4.98389 34891 ft 371 kts 232°
2026-05-05 22:07 42.87553 4.92778 34896 ft 372 kts 232°
2026-05-05 22:07 42.84452 4.87173 34884 ft 371 kts 232°
2026-05-05 22:08 42.81361 4.81586 34903 ft 373 kts 232°
2026-05-05 22:08 42.78238 4.75952 34906 ft 373 kts 232°
2026-05-05 22:09 42.75108 4.70321 34902 ft 373 kts 233°
2026-05-05 22:09 42.71988 4.64717 34906 ft 374 kts 233°
2026-05-05 22:10 42.68840 4.59072 34896 ft 375 kts 232°
2026-05-05 22:10 42.65696 4.53443 34914 ft 374 kts 232°
2026-05-05 22:11 42.62572 4.47863 34910 ft 374 kts 233°
2026-05-05 22:11 42.59421 4.42248 34915 ft 373 kts 233°
2026-05-05 22:12 42.56284 4.36667 34911 ft 374 kts 233°
2026-05-05 22:12 42.53119 4.31040 34904 ft 374 kts 232°
2026-05-05 22:13 42.49977 4.25474 34917 ft 375 kts 232°
2026-05-05 22:13 42.46814 4.19879 34917 ft 374 kts 233°
2026-05-05 22:14 42.43644 4.14276 34914 ft 374 kts 233°
2026-05-05 22:14 42.40479 4.08691 34910 ft 380 kts 233°
2026-05-05 22:15 42.37211 4.02942 34918 ft 392 kts 233°
2026-05-05 22:15 42.33866 3.97066 34910 ft 399 kts 233°
2026-05-05 22:16 42.30475 3.91122 34910 ft 399 kts 233°
2026-05-05 22:16 42.27064 3.85153 34474 ft 403 kts 233°
2026-05-05 22:16 42.25375 3.82203 33925 ft 398 kts 233°
2026-05-05 22:17 42.23717 3.79311 33030 ft 391 kts 233°
2026-05-05 22:17 42.22076 3.76450 31645 ft 391 kts 233°
2026-05-05 22:17 42.20392 3.73518 30837 ft 397 kts 233°
2026-05-05 22:17 42.18721 3.70616 30319 ft 397 kts 233°
2026-05-05 22:18 42.17027 3.67666 29793 ft 397 kts 233°
2026-05-05 22:18 42.15332 3.64720 29255 ft 401 kts 233°
2026-05-05 22:18 42.13613 3.61740 28698 ft 405 kts 233°
2026-05-05 22:18 42.11884 3.58740 28138 ft 408 kts 233°
2026-05-05 22:19 42.10143 3.55725 27604 ft 410 kts 233°
2026-05-05 22:19 42.08386 3.52682 27045 ft 413 kts 233°
2026-05-05 22:19 42.06640 3.49664 26444 ft 414 kts 233°
2026-05-05 22:19 42.04860 3.46589 25875 ft 416 kts 233°
2026-05-05 22:20 42.03073 3.43511 25286 ft 420 kts 233°
2026-05-05 22:20 42.01278 3.40422 24701 ft 421 kts 233°
2026-05-05 22:20 41.99464 3.37302 24140 ft 423 kts 233°
2026-05-05 22:20 41.97654 3.34186 23537 ft 424 kts 232°
2026-05-05 22:21 41.95843 3.31077 22891 ft 423 kts 232°
2026-05-05 22:21 41.94057 3.28012 22168 ft 421 kts 232°
2026-05-05 22:21 41.92265 3.24939 21313 ft 418 kts 232°
2026-05-05 22:21 41.90487 3.21890 20413 ft 417 kts 232°
2026-05-05 22:22 41.88695 3.18828 19622 ft 417 kts 232°
2026-05-05 22:22 41.86931 3.15817 18832 ft 409 kts 232°
2026-05-05 22:22 41.85211 3.12883 17961 ft 402 kts 232°
2026-05-05 22:22 41.83461 3.09899 17216 ft 414 kts 232°
2026-05-05 22:23 41.81676 3.06862 16471 ft 410 kts 232°
2026-05-05 22:23 41.79915 3.03866 15732 ft 406 kts 232°
2026-05-05 22:23 41.78184 3.00923 14950 ft 403 kts 232°
2026-05-05 22:23 41.76462 2.97997 14184 ft 400 kts 232°
2026-05-05 22:24 41.74746 2.95086 13473 ft 397 kts 232°
2026-05-05 22:24 41.73039 2.92193 12820 ft 395 kts 232°
2026-05-05 22:24 41.71339 2.89314 12221 ft 392 kts 232°
2026-05-05 22:24 41.69674 2.86495 11665 ft 387 kts 232°
2026-05-05 22:25 41.68014 2.83688 11148 ft 388 kts 233°
2026-05-05 22:25 41.66341 2.80862 10659 ft 386 kts 233°
2026-05-05 22:25 41.64681 2.78061 10144 ft 382 kts 233°
2026-05-05 22:25 41.63038 2.75290 9962 ft 385 kts 233°
2026-05-05 22:26 41.61359 2.72463 9671 ft 383 kts 233°
2026-05-05 22:26 41.59740 2.69738 9192 ft 377 kts 233°
2026-05-05 22:26 41.58109 2.66995 8423 ft 376 kts 233°
2026-05-05 22:26 41.56474 2.64251 7850 ft 375 kts 233°
2026-05-05 22:27 41.54879 2.61570 7319 ft 374 kts 233°
2026-05-05 22:27 41.53267 2.58868 6834 ft 370 kts 233°
2026-05-05 22:27 41.51675 2.56202 6445 ft 370 kts 233°
2026-05-05 22:27 41.50075 2.53521 6059 ft 368 kts 233°
2026-05-05 22:28 41.48492 2.50874 5462 ft 365 kts 233°
2026-05-05 22:28 41.46904 2.48221 4858 ft 366 kts 233°
2026-05-05 22:28 41.45311 2.45562 4411 ft 365 kts 233°
2026-05-05 22:28 41.43743 2.42946 3908 ft 358 kts 233°
2026-05-05 22:29 41.42242 2.40447 3365 ft 336 kts 233°
2026-05-05 22:29 41.40836 2.38109 2897 ft 313 kts 233°
2026-05-05 22:29 41.39521 2.35926 2488 ft 293 kts 233°
2026-05-05 22:29 41.38286 2.33875 2276 ft 269 kts 233°
2026-05-05 22:30 41.37144 2.31975 2273 ft 260 kts 233°
2026-05-05 22:30 41.36052 2.30108 2268 ft 252 kts 238°
2026-05-05 22:30 41.35241 2.28135 2264 ft 237 kts 248°
2026-05-05 22:30 41.34610 2.26145 2264 ft 225 kts 250°
2026-05-05 22:31 41.34032 2.24339 2212 ft 205 kts 248°
2026-05-05 22:31 41.33465 2.22663 2070 ft 189 kts 248°
2026-05-05 22:31 41.32932 2.21123 1800 ft 181 kts 248°
2026-05-05 22:31 41.32420 2.19647 1632 ft 166 kts 248°
2026-05-05 22:32 41.31934 2.18331 1444 ft 150 kts 247°
2026-05-05 22:32 41.31524 2.17128 1182 ft 140 kts 249°
2026-05-05 22:32 41.31149 2.15941 942 ft 138 kts 249°
2026-05-05 22:32 41.30745 2.14782 766 ft 138 kts 247°
2026-05-05 22:33 41.30350 2.13629 572 ft 137 kts 246°
2026-05-05 22:33 41.29952 2.12481 379 ft 137 kts 248°
2026-05-05 22:33 41.29559 2.11323 216 ft 137 kts 247°
2026-05-05 22:33 41.29162 2.10171 78 ft 137 kts 247°
2026-05-05 22:34 41.28780 2.09053 25 ft 122 kts 247°
2026-05-05 22:34 41.28493 2.08203 15 ft 73 kts 244°
2026-05-05 22:34 41.28415 2.07797 16 ft 24 kts 272°
2026-05-05 22:34 41.28451 2.07649 17 ft 3 kts 346°
2026-05-05 22:35 41.28452 2.07649 17 ft 0 kts 347°
2026-05-05 22:35 41.28452 2.07648 17 ft 0 kts 347°